VTD535 UWSG-UWSG

Flight info

Callsign VTD535
Flight time 0h 12m
Altitude 3000
Route UWSG/26 RA/A040
Aircraft C172/L-S/C

Departure

Time 2026-04-26 13:21
Airport Gagarin International Airport (UWSG)

Arrival

Time 2026-04-26 13:34
Airport Gagarin International Airport (UWSG)
Time Latitude Longitude Altitude Speed Heading
2026-04-26 13:16 51.64760 46.06260 444 ft 0 kts 118°
2026-04-26 13:19 51.64759 46.06261 444 ft 2 kts 117°
2026-04-26 13:19 51.64722 46.06374 444 ft 17 kts 116°
2026-04-26 13:19 51.64653 46.06569 443 ft 19 kts 121°
2026-04-26 13:19 51.64587 46.06765 453 ft 16 kts 121°
2026-04-26 13:20 51.64568 46.06802 454 ft 0 kts 177°
2026-04-26 13:21 51.64517 46.06789 452 ft 8 kts 225°
2026-04-26 13:21 51.64513 46.06775 452 ft 2 kts 264°
2026-04-26 13:21 51.64514 46.06115 539 ft 67 kts 256°
2026-04-26 13:21 51.64495 46.05353 772 ft 66 kts 244°
2026-04-26 13:22 51.64486 46.04602 1023 ft 68 kts 251°
2026-04-26 13:22 51.64465 46.03869 1286 ft 65 kts 242°
2026-04-26 13:22 51.64383 46.03146 1477 ft 69 kts 231°
2026-04-26 13:22 51.63935 46.02967 1470 ft 90 kts 158°
2026-04-26 13:23 51.63325 46.03175 1469 ft 92 kts 179°
2026-04-26 13:23 51.62698 46.03242 1512 ft 87 kts 181°
2026-04-26 13:23 51.62120 46.03453 1490 ft 89 kts 154°
2026-04-26 13:23 51.61849 46.04413 1471 ft 106 kts 104°
2026-04-26 13:24 51.61842 46.05610 1487 ft 107 kts 101°
2026-04-26 13:24 51.61869 46.06849 1484 ft 111 kts 96°
2026-04-26 13:24 51.61931 46.08108 1494 ft 111 kts 96°
2026-04-26 13:24 51.61988 46.09372 1479 ft 111 kts 97°
2026-04-26 13:25 51.62066 46.10649 1449 ft 114 kts 92°
2026-04-26 13:25 51.62484 46.11818 1402 ft 126 kts 39°
2026-04-26 13:25 51.63351 46.12040 1324 ft 120 kts 351°
2026-04-26 13:25 51.64198 46.11935 1236 ft 111 kts 342°
2026-04-26 13:26 51.64637 46.11149 1065 ft 87 kts 253°
2026-04-26 13:26 51.64590 46.10202 882 ft 82 kts 257°
2026-04-26 13:26 51.64576 46.09335 727 ft 73 kts 253°
2026-04-26 13:26 51.64551 46.08514 591 ft 73 kts 257°
2026-04-26 13:27 51.64529 46.07746 503 ft 66 kts 263°
2026-04-26 13:27 51.64519 46.07056 448 ft 54 kts 258°
2026-04-26 13:27 51.64507 46.06505 448 ft 58 kts 264°
2026-04-26 13:27 51.64489 46.05712 577 ft 77 kts 254°
2026-04-26 13:28 51.64474 46.04879 868 ft 72 kts 254°
2026-04-26 13:28 51.64485 46.04088 1135 ft 70 kts 248°
2026-04-26 13:28 51.64448 46.03325 1403 ft 69 kts 245°
2026-04-26 13:28 51.64245 46.02601 1489 ft 77 kts 204°
2026-04-26 13:29 51.63648 46.02576 1438 ft 89 kts 181°
2026-04-26 13:29 51.63250 46.02610 1466 ft 84 kts 180°
2026-04-26 13:29 51.62503 46.02796 1502 ft 88 kts 155°
2026-04-26 13:29 51.62229 46.03800 1493 ft 112 kts 104°
2026-04-26 13:30 51.62246 46.05109 1465 ft 115 kts 103°
2026-04-26 13:30 51.62194 46.06377 1436 ft 108 kts 107°
2026-04-26 13:30 51.62159 46.07594 1420 ft 106 kts 103°
2026-04-26 13:30 51.62185 46.08804 1428 ft 107 kts 102°
2026-04-26 13:31 51.62204 46.10054 1435 ft 110 kts 101°
2026-04-26 13:31 51.62219 46.11298 1439 ft 111 kts 102°
2026-04-26 13:31 51.62241 46.12533 1427 ft 104 kts 96°
2026-04-26 13:31 51.62677 46.13520 1345 ft 117 kts 25°
2026-04-26 13:32 51.63496 46.13598 1273 ft 104 kts 352°
2026-04-26 13:32 51.64133 46.13363 1221 ft 83 kts 298°
2026-04-26 13:32 51.64451 46.12573 1142 ft 76 kts 274°
2026-04-26 13:32 51.64570 46.11747 1071 ft 72 kts 263°
2026-04-26 13:33 51.64613 46.10984 1025 ft 62 kts 254°
2026-04-26 13:33 51.64579 46.10223 893 ft 75 kts 255°
2026-04-26 13:33 51.64556 46.09347 701 ft 74 kts 261°
2026-04-26 13:33 51.64545 46.08570 591 ft 65 kts 261°
2026-04-26 13:34 51.64533 46.07855 512 ft 65 kts 262°
2026-04-26 13:34 51.64522 46.07152 448 ft 56 kts 260°
2026-04-26 13:34 51.64532 46.06798 452 ft 10 kts
2026-04-26 13:34 51.64571 46.06791 453 ft 0 kts 330°
2026-04-26 13:35 51.64574 46.06789 454 ft 5 kts 324°
2026-04-26 13:35 51.64626 46.06643 443 ft 18 kts 299°
2026-04-26 13:35 51.64690 46.06458 443 ft 16 kts 299°
2026-04-26 13:35 51.64751 46.06283 444 ft 18 kts 295°
2026-04-26 13:36 51.64807 46.06163 442 ft 11 kts 14°
2026-04-26 13:36 51.64818 46.06173 442 ft 0 kts 41°